Regional Weather Roundup
Issued by NWS

Home | Current Version | Previous Version | Graphics & Text | Print | Product List | Glossary On
Versions: 1 2 3 4 5 6 7 8 9 10 11 12 13 14 15 16 17 18 19 20 21 22 23 24 25 26 27 28 29 30 31 32 33 34 35 36 37 38 39 40 41 42 43 44 45 46 47 48 49 50
000
ASUS43 KLSX 190259
RWRMO

WEATHER SUMMARY FOR MISSOURI
NATIONAL WEATHER SERVICE SPRINGFIELD MO
1000 PM CDT THU SEP 18 2014

NOTE: "FAIR" INDICATES FEW OR NO CLOUDS BELOW 12,000 FEET WITH NO
       SIGNIFICANT WEATHER AND/OR OBSTRUCTIONS TO VISIBILITY.
       CURRENT SKY AND/OR WEATHER CONDITIONS ARE NOT AVAILABLE FOR
       CHILLICOTHE AND FARMINGTON.

MOZ001>031-035>038-043-044-053-054-190400-
...NORTHERN AND WESTERN MISSOURI...

CITY           SKY/WX    TMP DP  RH WIND       PRES   REMARKS
KANSAS CTY INT CLEAR     63  61  93 SE7       30.02R
KANSAS C DTWN  CLEAR     65  61  87 E5        30.01R
LEE`S SUMMIT   CLEAR     62  60  93 E7        30.03R FOG
ST JOSEPH      CLEAR     59  58  96 SE5       30.02R
KIRKSVILLE     CLEAR     55  53  93 CALM      30.07R

$$
MOZ066>068-077>081-088>096-101>105-190400-
...SOUTHWEST MISSOURI...

CITY           SKY/WX    TMP DP  RH WIND       PRES   REMARKS
SPRINGFIELD    CLOUDY    66  61  84 SE10      30.04R
JOPLIN         CLEAR     65  63  93 E6        30.01R

$$
MOZ032>034-039>042-045>050-055>058-069>072-190400-
...CENTRAL MISSOURI...

CITY           SKY/WX    TMP DP  RH WIND       PRES   REMARKS
COLUMBIA       CLEAR     61  58  90 E5          N/A
JEFFERSON CITY MOCLDY    64  59  83 CALM      30.05R
ROLLA          FOG       60  59  96 CALM      30.05R VSB 1/2
SEDALIA        CLEAR     63  60  90 S5        30.05R FOG
WHITEMAN AFB   PTCLDY    62  61  96 SE3       30.03S
OSAGE BEACH    PTCLDY    61  57  88 CALM      30.05S

$$
MOZ051-052-059>065-190400-
...EAST CENTRAL MISSOURI...

CITY           SKY/WX    TMP DP  RH WIND       PRES   REMARKS
ST LOUIS INTL  PTCLDY    65  54  67 CALM      30.07R
SPIRIT OF STL  CLEAR     57  55  93 CALM      30.06R
ST CHARLES     CLEAR     59  56  89 CALM      30.06R

$$
MOZ072>076-082>087-097>100-106>115-190400-
...SOUTH CENTRAL AND SOUTHEAST MISSOURI...

CITY           SKY/WX    TMP DP  RH WIND       PRES   REMARKS
CAPE GIRARDEAU CLOUDY    66  61  84 NE3       30.05R
FARMINGTON     MOCLDY    63  57  82 CALM      30.08S
POPLAR BLUFF   PTCLDY    65  58  78 NE5       30.02S
WEST PLAINS    FOG       59  57  93 CALM      30.07R VSB 3/4

$$



USA.gov is the U.S. government's official web portal to all federal, state and local government web resources and services.